SHFT 1 (GOERGEN) (43860 NORAD) Tracking and Keplerian Element Data

This shows tracking and keplerian element data for the satellite.

Feedback or suggestion? Click here.




ElementValue
Catalog43860
NameSHFT 1 (GOERGEN)
Epoch Orbit21939
Epoch Day325.19828753
Epoch Year2022
RAAN298.2435
Inclination84.9965
Eccentricity0.0011894
Argument of Perigee126.7817
Mean Anonmoly233.4561
Mean Motion16.00080575
Decay Rate0.01359011
L11 43860U 18104M 22325.19828753 .01359011 10071-2 26931-2 0 9996
L22 43860 84.9965 298.2435 0011894 126.7817 233.4561 16.00080575219392



Live tracking and technical data element details for SHFT 1 (GOERGEN) (NORAD 43860). SHFT 1 (GOERGEN) can be tracked NOW for your location showing map with azimuth and elevation plus other details from your city location.







IsCatalogInMostPopularTable: catalog: 43860, numindb: 290
Update: records affected: 1



GetName: 43860 SHFT 1 (GOERGEN)

Hit Count: updated at: Thu, 22 May 2025 04:40:21 GMT